This is the latest recevied weather packets stored in our database for station/object wb2ifs-13. If no packets are shown the sender has not sent any weather packets the latest 1 day(s).
| Time | Temp. | Humidity | Pressure | Rain* | Wind** | Luminosity | Snow |
|---|---|---|---|---|---|---|---|
| 1778022899 | 26.67° C | 36% | 1011.1 hPa | 0 mm | 0.89 m/s, 304° | - | - |
| 1778022004 | 26.67° C | 34% | 1011 hPa | 0 mm | 0.89 m/s, 115° | - | - |
| 1778021100 | 26.67° C | 34% | 1011.1 hPa | 0 mm | 0.89 m/s, 84° | - | - |
| 1778020199 | 27.22° C | 33% | 1011.1 hPa | 0 mm | 1.34 m/s, 77° | - | - |
| 1778019299 | 27.78° C | 32% | 1011 hPa | 0 mm | 1.79 m/s, 213° | - | - |
| 1778018403 | 27.78° C | 33% | 1011 hPa | 0 mm | 1.79 m/s, 89° | - | - |
| 1778017500 | 28.33° C | 31% | 1010.9 hPa | 0 mm | 1.79 m/s, 77° | - | - |
| 1778016600 | 28.89° C | 31% | 1010.9 hPa | 0 mm | 1.79 m/s, 117° | - | - |
| 1778015699 | 28.33° C | 31% | 1010.6 hPa | 0 mm | 1.79 m/s, 135° | - | - |
| 1778014801 | 28.33° C | 31% | 1010.6 hPa | 0 mm | 1.79 m/s, 139° | - | - |
| 1778013900 | 28.89° C | 30% | 1010.4 hPa | 0 mm | 2.68 m/s, 358° | - | - |
| 1778012999 | 29.44° C | 31% | 1010.8 hPa | 0 mm | 1.79 m/s, 66° | - | - |
| 1778012100 | 29.44° C | 32% | 1010.5 hPa | 0 mm | 1.79 m/s, 248° | - | - |
| 1778011202 | 28.89° C | 33% | 1010.6 hPa | 0 mm | 2.68 m/s, 73° | - | - |
| 1778010300 | 28.89° C | 33% | 1010.7 hPa | 0 mm | 2.24 m/s, 285° | - | - |
| 1778009401 | 29.44° C | 33% | 1011.1 hPa | 0 mm | 1.79 m/s, 113° | - | - |
| 1778008500 | 28.89° C | 35% | 1011.3 hPa | 0 mm | 2.24 m/s, 125° | - | - |
| 1778007602 | 28.89° C | 34% | 1011.6 hPa | 0 mm | 2.24 m/s, 200° | - | - |
| 1778006699 | 28.89° C | 34% | 1011.9 hPa | 0 mm | 2.24 m/s, 184° | - | - |
| 1778005800 | 28.89° C | 35% | 1012.1 hPa | 0 mm | 2.24 m/s, 113° | - | - |
| 1778004899 | 28.89° C | 35% | 1012.3 hPa | 0 mm | 1.79 m/s, 75° | - | - |
| 1778004000 | 28.33° C | 37% | 1012.5 hPa | 0 mm | 1.79 m/s, 345° | - | - |
| 1778003099 | 28.33° C | 35% | 1012.4 hPa | 0 mm | 1.79 m/s, 138° | - | - |
| 1778002200 | 28.33° C | 38% | 1012.4 hPa | 0 mm | 1.34 m/s, 77° | - | - |
| 1778001299 | 28.33° C | 38% | 1012.6 hPa | 0 mm | 1.34 m/s, 167° | - | - |
* Rain latest hour (hover to see other rain measurements)
** Current wind speed in m/s (hover to see current wind gust speed)